{"data":{"norad_id":65812,"intl_designator":"2025-218X","name":"STARLINK-35271","alt_names":[],"object_type":"PAYLOAD","status":"ACTIVE","operator":null,"country":"US","launch_date":"2025-09-26","launch_site_code":"AFWTR","launch_vehicle":null,"mission":null,"orbit_class":"UNKNOWN","rcs_meters":null,"size_class":null,"mass_kg":null,"dimensions":null,"purposes":["comms"],"wikipedia_slug":null,"has_3d_model":false,"image_url":null,"decayed_at":null,"tle_current":{"epoch":"2026-09-20T14:36:47.686464Z","epoch_age_seconds":96769,"freshness":"FRESH","line1":"1 65812U 25218X   26263.60888526  .00013360  00000+0  41514-3 0  9992","line2":"2 65812  97.2853 121.0358 0002200  94.4424 265.7070 15.33464403 54356","mean_motion":15.33464403,"eccentricity":0.00022,"inclination_deg":97.2853,"raan_deg":121.0358,"arg_perigee_deg":94.4424,"mean_anomaly_deg":265.707,"bstar":0.00041514,"rev_number":5435,"period_min":93.90501645704,"perigee_km":463.97984847203,"apogee_km":466.99104234801,"semimajor_km":6843.62244541,"source":"CELESTRAK","updated_at":"2026-09-21T09:00:35.718143Z"}}}